Regional Weather Roundup
Issued by NWS

Home | Current Version | Previous Version | Graphics & Text | Print | Product List | Glossary On
Versions: 1 2 3 4 5 6 7 8 9 10 11 12 13 14 15 16 17 18 19 20 21 22 23 24 25 26 27 28 29 30 31 32 33 34 35 36 37 38 39 40 41 42 43 44 45 46 47 48 49 50
000
ASUS45 KCYS 211910
RWRWY

WYOMING REGIONAL WEATHER ROUNDUP
NATIONAL WEATHER SERVICE CHEYENNE WY
100 PM MDT MON MAY 21 2018

NOTE:  "FAIR" INDICATES FEW OR NO CLOUDS BELOW 12,000 FEET
WITH NO SIGNIFICANT WEATHER AND/OR OBSTRUCTIONS TO VISIBILITY.

WYZ001-212000-
YELLOWSTONE NATIONAL PARK

CITY           SKY/WX    TMP DP  RH WIND       PRES   REMARKS
LK YELLOWSTONE   N/A     54  39  57 VRB3      30.12F
W YELLOWSTONE  NOT AVBL

$$
WYZ002>013-054>058-071-098>099-212000-
NORTHERN WYOMING

CITY           SKY/WX    TMP DP  RH WIND       PRES   REMARKS
JACKSON        FAIR      66  39  37 SW9       30.03F
CODY           FAIR      73  42  32 VRB6      29.96F
GREYBULL       FAIR      76  46  34 VRB6      29.89F
WORLAND        FAIR      72  50  45 W5        29.91F
SHERIDAN       FAIR      71  50  47 CALM      29.94R
BUFFALO        FAIR      74  44  34 VRB3      29.98S
GILLETTE       FAIR      73  44  35 CALM      29.93F
NEWCASTLE      FAIR      68  43  40 SE7       29.98S

$$
WYZ014>020-022>026-101>103-212000-
CENTRAL WYOMING

CITY           SKY/WX    TMP DP  RH WIND       PRES   REMARKS
BIG PINEY      FAIR      65  36  34 MISG      30.07F
PINEDALE       FAIR      63  36  36 S12       30.08F
DUBOIS         CLOUDY    57  36  44 SW25      30.06S
LANDER         PTSUNNY   68  49  50 N10       29.97F
RIVERTON       FAIR      69  45  41 NE6       29.99F
CASPER         FAIR      72  40  31 VRB3G16   29.98F
DOUGLAS        FAIR      73  48  41 VRB3      29.98F

$$
WYZ021-027>030-104>119-212000-
SOUTHERN WYOMING

CITY           SKY/WX    TMP DP  RH WIND       PRES   REMARKS
EVANSTON       PTSUNNY   66  33  29 E7        30.03F
KEMMERER       FAIR      66  32  28 E7        30.07F
FORT BRIDGER   FAIR      69  33  26 E10       30.08F
ROCK SPRINGS   FAIR      70  30  22 N5        30.05F
DIXON          FAIR      73  29  19 CALM      30.06F
RAWLINS        FAIR      71  30  21 VRB6      30.06F
SARATOGA       FAIR      70  30  23 W8        30.08F
LARAMIE        FAIR      67  31  26 W5        30.08F
CHEYENNE       FAIR      71  42  35 SE6       30.04F
TORRINGTON     FAIR      70  53  54 VRB7      29.96F
PINE BLUFFS    FAIR      68  50  52 E3        30.02F

$$



USA.gov is the U.S. government's official web portal to all federal, state and local government web resources and services.